Location: Lecco
(45.8566°N, 9.3977°E)
Time: 13:21:35
(UTC+02:00)

Vanguard 2 Rocket - Pass Details

Date: 22 August 2020
Orbit: 554 x 3326 km, 32.9° (Epoch: 24 September)

Event Time Altitude Azimuth Distance (km) Brightness Sun altitude
Rises 15:35:38 0° 218° (SW) 2,745 10.1 45.9°
Reaches altitude 10° 15:39:27 10° 180° (S) 1,832 9.0 45.4°
Maximum altitude 15:40:34 11° 163° (SSE) 1,796 8.8 45.2°
Drops below altitude 10° 15:41:44 10° 146° (SSE) 1,902 8.7 45.1°
Sets 15:46:00 0° 110° (ESE) 3,091 9.4 44.5°
